Tracking 32420 objects as of 8-Dec-2025
HD Live streaming from Space Station
objects crossing your sky now

THOR ABLESTAR DEB

Track THOR ABLESTAR DEB now!
10-day predictions


NORAD ID: 13514
Int'l Code: 1961-015KX
Perigee: 895.5 km
Apogee: 1,254.5 km
Inclination: 66.7 °
Period: 106.6 minutes
Semi major axis: 7446 km
RCS: 0.0184 m2 (small)
Launch date: June 29, 1961
Source: United States (US)
Launch site: AIR FORCE EASTERN TEST RANGE (AFETR)

Note: This is SATELLITE DEBRIS
Your satellite tracking list
Your tracking list is empty




NASA's NSSDC Master Catalog

Two Line Element Set (TLE):
1 13514U 61015KX  25341.77665834  .00000594  00000-0  85287-3 0  9999
2 13514  66.7146 104.4674 0241066 152.4377 357.0764 13.51193798238709
Source of the keplerian elements: AFSPC